Regional Weather Roundup
Issued by NWS

Home | Current Version | Previous Version | Text Only | Print | Product List | Glossary Off
Versions: 1 2 3 4 5 6 7 8 9 10 11 12 13 14 15 16 17 18 19 20 21 22 23 24 25 26 27 28 29 30 31 32 33 34 35 36 37 38 39 40 41 42 43 44 45 46 47 48 49 50

000
ASUS45 KBOU 230307
RWRCO

WEATHER ROUNDUP FOR COLORADO
NATIONAL WEATHER SERVICE DENVER/BOULDER CO
800 PM MST SAT NOV 22 2014

NOTE: "FAIR" INDICATES FEW OR NO CLOUDS BELOW 12000 FEET WITH NO
SIGNIFICANT WEATHER AND/OR OBSTRUCTIONS TO VISIBILITY.

COZ001>005-013-030-031-230400-
...NORTHWEST COLORADO...

CITY           SKY/WX    TMP DP  RH WIND       PRES   REMARKS
CRAIG          CLOUDY    40  28  62 W17       29.73S
HAYDEN         CLOUDY    34  28  80 NE7       29.72F WCI  28
MEEKER         FLURRIES  36  31  82 W13       29.77R
MOUNT WERNER   NOT AVBL
STEAMBOAT SPGS CLOUDY    32  31  98 CALM      29.72F
WALDEN         CLOUDY    30  28  93 S7        29.70S WCI  23
$$

COZ006>008-011-230400-
...WEST CENTRAL VALLEYS...

CITY           SKY/WX    TMP DP  RH WIND       PRES   REMARKS
GRAND JUNCTION CLOUDY    35  33  92 N3        29.80R
MONTROSE       CLOUDY    40  28  62 W6        29.81F
EAGLE          CLOUDY    34  32  93 E5        29.81F WCI  30
RIFLE          LGT RAIN  35  33  92 CALM      29.79F
DELTA          LGT RAIN  43  35  72 NE6       29.81S
NUCLA          CLOUDY    45  21  39 S3        29.85F
$$

COZ017>023-064>068-230400-
...SOUTHWEST COLORADO...

CITY           SKY/WX    TMP DP  RH WIND       PRES   REMARKS
DURANGO        MOCLDY    38  20  48 S5        29.89F
CORTEZ         CLOUDY    36  24  62 CALM      29.87F
PAGOSA SPRINGS MOCLDY    35  19  52 SE5       29.92F WCI  31
TELLURIDE      LGT SNOW  34  24  68 E6        29.91F WCI  29
WOLF CREEK PAS CLOUDY    18  18 100 SW18G26   29.94F WCI   2
$$

COZ009-010-012-014-032>034-037-058>063-230400-
...CENTRAL COLORADO...

CITY           SKY/WX    TMP DP  RH WIND       PRES   REMARKS
ASPEN          FLURRIES  32  30  92 CALM      29.78F
BUENA VISTA    CLOUDY    35  25  68 NW8G18    29.77F WCI  28
COPPER MTN     LGT SNOW  27  19  74 SW15G29   29.82F VSB 1   WCI  15
BERTHOUD PASS  LGT SNOW  19  14  79 W43G54    29.77R WCI  -2
COTTONWOOD PAS CLOUDY    34  23  64 W22G33    29.79F WCI  22
GUNNISON       CLOUDY    30  25  80 NW5       29.87F WCI  25
KREMMLING      FLURRIES  36  28  75 W14G20    29.74F
LEADVILLE      LGT SNOW  25  24  96 SE7       29.79F FOG     WCI  17
SALIDA         MOCLDY    41  24  51 SW14G22   29.87R
SUNLIGHT       LGT SNOW  28  27  93 CALM      29.81F
WILKERSON PASS CLOUDY    23  19  86 SW15G25   29.76F WCI  10
$$

COZ069>075-230400-
...SAN LUIS VALLEY/SANGRE DE CRISTO MOUNTAINS...

CITY           SKY/WX    TMP DP  RH WIND       PRES   REMARKS
ALAMOSA        CLOUDY    26  14  60 W3        29.83F
LA VETA PASS   PTCLDY    28  12  50 S16G29    29.81R WCI  17
SAGUACHE       PTCLDY    32  25  74 NW7       29.84F WCI  26
$$

COZ035-036-038>040-230400-
...NORTHERN COLORADO FRONT RANGE...

CITY           SKY/WX    TMP DP  RH WIND       PRES   REMARKS
DENVER INTL AP CLOUDY    50  24  36 NW9       29.60R
DMNS CITY PARK   N/A     49  23  36 W3        29.58F
AURORA         MOCLDY    46  25  44 W6        29.62R
FRONT RANGE AP CLOUDY    45  30  57 W9        29.62R
ERIE MUNI ARPT MOCLDY    45  25  46 W9        29.60R
BOULDER MUN AP MOCLDY    46  27  46 CALM      29.59S
CENTENNIAL     MOCLDY    43  25  49 S6        29.62R
BROOMFIELD     MOCLDY    52  25  35 W20G26    29.60S
FORT COLLINS   MOCLDY    48  27  43 W7        29.59S
LONGMONT       MOCLDY    52  27  37 W14       29.60S
$$

COZ041-046-047-076>085-087-088-230400-
...PIKES PEAK/PALMER DIVIDE AND SOUTHERN FOOTHILLS...

CITY           SKY/WX    TMP DP  RH WIND       PRES   REMARKS
COLO. SPRINGS  CLOUDY    53  20  27 NW21G26   29.62F
A. F. ACADEMY  CLOUDY    48  19  30 W9G20     29.65F
ELLICOTT       NOT AVBL
FALCON         NOT AVBL
FORT CARSON    CLOUDY    51  17  25 N7        29.61S
LIMON          CLOUDY    41  17  38 W7        29.58R
MONUMENT HILL  CLOUDY    36  18  48 S3        29.65F
TRINIDAD       MOCLDY    43  22  43 W14       29.65R
$$

COZ042>045-048>051-090-091-230400-
...NORTHEAST COLORADO...

CITY           SKY/WX    TMP DP  RH WIND       PRES   REMARKS
GREELEY ARPT   CLOUDY    36  21  55 W9        29.58S
AKRON          CLOUDY    45  17  32 N3        29.56S
BURLINGTON     CLOUDY    42  18  37 S7        29.53F
WRAY           CLOUDY    47  12  24 N7        29.52F
STERLING       CLOUDY    45  27  49 N6        29.53S
HOLYOKE        CLOUDY    45  18  33 N5        29.53F
FORT MORGAN    CLOUDY    38  17  43 W7        29.56S
$$

COZ086-089-092>099-230400-
...SOUTHEAST COLORADO...

CITY           SKY/WX    TMP DP  RH WIND       PRES   REMARKS
PUEBLO         CLOUDY    56  22  26 NW17      29.59S
LA JUNTA       CLOUDY    52  26  36 W18       29.53F
LAMAR          MOCLDY    42  25  50 S9        29.50F
SPRINGFIELD      N/A     35  22  58 W3        29.57S
$$


USA.gov is the U.S. government's official web portal to all federal, state and local government web resources and services.